When you browse on this site, cookies collect data to enhance your experience and personalize the content and advertising you see.
Visit our Privacy Policy to learn more. By continuing to use the site, you agree to this use of cookies and data.
  • In Österreich
  • Länderverzeichnis
  • Für 7 Tage
  • Wassertemperatur
  • Satellitenkarten
  • Wetterkarte
  • News
  • Widgets
  • user-avatar
    Anmelden

    Stündliche Wetter Kapan

    Heute, 20 April, Samstag

    Zeit Temperatur Niederschläge Wind Luftdruck Luftfeuchtigkeit
    00:00 +3°C° 0.8 mm 2 m/S 679 mmHg 93%
    01:00 +3°C° 1.2 mm 2 m/S 679 mmHg 93%
    02:00 +2°C° 1.2 mm 2 m/S 678 mmHg 94%
    03:00 +1°C° 0 mm 3 m/S 678 mmHg 97%
    04:00 +1°C° 1.5 mm 2 m/S 678 mmHg 96%
    05:00 +1°C° 1.5 mm 2 m/S 678 mmHg 95%
    06:00 +1°C° 1.5 mm 2 m/S 678 mmHg 94%
    07:00 +1°C° 0.8 mm 2 m/S 679 mmHg 93%
    08:00 +2°C° 0.8 mm 2 m/S 679 mmHg 91%
    09:00 +2°C° 0.8 mm 2 m/S 680 mmHg 89%
    10:00 +3°C° 0.3 mm 2 m/S 680 mmHg 87%
    11:00 +4°C° 0.3 mm 2 m/S 680 mmHg 86%
    12:00 +5°C° 0.3 mm 2 m/S 681 mmHg 84%
    13:00 +5°C° 0.1 mm 2 m/S 681 mmHg 82%
    14:00 +6°C° 0.1 mm 2 m/S 681 mmHg 80%
    15:00 +6°C° 0.1 mm 2 m/S 681 mmHg 79%
    16:00 +6°C° 0.1 mm 2 m/S 681 mmHg 81%
    17:00 +5°C° 0.1 mm 2 m/S 681 mmHg 83%
    18:00 +5°C° 0.1 mm 2 m/S 681 mmHg 85%
    19:00 +4°C° 0 mm 2 m/S 681 mmHg 87%
    20:00 +4°C° 0 mm 1 m/S 682 mmHg 90%
    21:00 +3°C° 0 mm 1 m/S 682 mmHg 92%
    22:00 +3°C° 0 mm 1 m/S 682 mmHg 91%
    23:00 +2°C° 0 mm 0 m/S 682 mmHg 91%

    Morgen, 21 April, Sonntag

    Zeit Temperatur Niederschläge Wind Luftdruck Luftfeuchtigkeit
    00:00 +2°C° 0 mm 0 m/S 682 mmHg 90%
    01:00 +2°C° 0.1 mm 0 m/S 682 mmHg 89%
    02:00 +2°C° 0.1 mm 0 m/S 682 mmHg 89%
    03:00 +2°C° 0.1 mm 0 m/S 682 mmHg 88%
    04:00 +3°C° 0.1 mm 1 m/S 682 mmHg 88%
    05:00 +3°C° 0.1 mm 1 m/S 683 mmHg 88%
    06:00 +4°C° 0.1 mm 1 m/S 683 mmHg 88%
    07:00 +5°C° 0.2 mm 1 m/S 683 mmHg 85%
    08:00 +5°C° 0.2 mm 2 m/S 683 mmHg 82%
    09:00 +5°C° 0.2 mm 3 m/S 683 mmHg 79%
    10:00 +5°C° 0.2 mm 3 m/S 683 mmHg 77%
    11:00 +7°C° 0.2 mm 3 m/S 683 mmHg 76%
    12:00 +7°C° 0.2 mm 3 m/S 683 mmHg 75%
    13:00 +8°C° 0.1 mm 3 m/S 682 mmHg 75%
    14:00 +8°C° 0.1 mm 3 m/S 682 mmHg 74%
    15:00 +7°C° 0.1 mm 4 m/S 682 mmHg 74%
    16:00 +7°C° 0.1 mm 3 m/S 681 mmHg 78%
    17:00 +5°C° 0.1 mm 3 m/S 681 mmHg 81%
    18:00 +4°C° 0.1 mm 3 m/S 681 mmHg 85%
    19:00 +4°C° 0.1 mm 3 m/S 682 mmHg 88%
    20:00 +4°C° 0.1 mm 2 m/S 682 mmHg 90%
    21:00 +4°C° 0.1 mm 2 m/S 682 mmHg 93%
    22:00 +3°C° 0.3 mm 2 m/S 682 mmHg 93%
    23:00 +3°C° 0.3 mm 2 m/S 682 mmHg 94%

    übermorgen, 22 April, Montag

    Zeit Temperatur Niederschläge Wind Luftdruck Luftfeuchtigkeit
    00:00 +3°C° 0.3 mm 2 m/S 683 mmHg 95%
    01:00 +3°C° 0.1 mm 2 m/S 682 mmHg 94%
    02:00 +3°C° 0.1 mm 1 m/S 682 mmHg 94%
    03:00 +3°C° 0.1 mm 1 m/S 682 mmHg 94%
    04:00 +2°C° 0 mm 2 m/S 682 mmHg 92%
    05:00 +2°C° 0 mm 2 m/S 682 mmHg 91%
    06:00 +3°C° 0 mm 2 m/S 682 mmHg 90%
    07:00 +3°C° 0.2 mm 2 m/S 682 mmHg 87%
    08:00 +4°C° 0.2 mm 2 m/S 682 mmHg 83%
    09:00 +4°C° 0.2 mm 3 m/S 682 mmHg 80%
    10:00 +4°C° 0.7 mm 3 m/S 681 mmHg 81%
    11:00 +4°C° 0.7 mm 3 m/S 681 mmHg 82%
    12:00 +4°C° 0.7 mm 3 m/S 681 mmHg 83%
    13:00 +4°C° 1 mm 3 m/S 681 mmHg 85%
    14:00 +4°C° 1 mm 3 m/S 681 mmHg 86%
    15:00 +4°C° 1 mm 2 m/S 681 mmHg 88%
    16:00 +4°C° 0.6 mm 2 m/S 681 mmHg 88%
    17:00 +4°C° 0.6 mm 2 m/S 681 mmHg 88%
    18:00 +3°C° 0.6 mm 2 m/S 682 mmHg 88%
    19:00 +3°C° 0.5 mm 2 m/S 682 mmHg 89%
    20:00 +3°C° 0.5 mm 2 m/S 683 mmHg 91%
    21:00 +3°C° 0.5 mm 2 m/S 683 mmHg 92%
    22:00 +3°C° 0.4 mm 1 m/S 684 mmHg 93%
    23:00 +3°C° 0.4 mm 1 m/S 684 mmHg 94%

    23 April, Dienstag

    Zeit Temperatur Niederschläge Wind Luftdruck Luftfeuchtigkeit
    00:00 +3°C° 0.4 mm 1 m/S 684 mmHg 95%
    01:00 +3°C° 0.2 mm 1 m/S 684 mmHg 94%
    02:00 +2°C° 0.2 mm 1 m/S 684 mmHg 93%
    03:00 +2°C° 0.2 mm 1 m/S 684 mmHg 92%
    04:00 +2°C° 0.2 mm 1 m/S 685 mmHg 91%
    05:00 +3°C° 0.2 mm 1 m/S 685 mmHg 89%
    06:00 +3°C° 0.2 mm 1 m/S 685 mmHg 87%
    07:00 +4°C° 0.2 mm 1 m/S 686 mmHg 85%
    08:00 +5°C° 0.2 mm 1 m/S 687 mmHg 83%
    09:00 +6°C° 0.2 mm 1 m/S 687 mmHg 80%
    10:00 +5°C° 0.2 mm 2 m/S 687 mmHg 78%
    11:00 +6°C° 0.2 mm 2 m/S 687 mmHg 76%
    12:00 +7°C° 0.2 mm 2 m/S 687 mmHg 74%
    13:00 +7°C° 0.2 mm 2 m/S 687 mmHg 72%
    14:00 +7°C° 0.2 mm 2 m/S 687 mmHg 71%
    15:00 +8°C° 0.2 mm 2 m/S 687 mmHg 70%
    16:00 +7°C° 0.2 mm 2 m/S 687 mmHg 72%
    17:00 +7°C° 0.2 mm 2 m/S 687 mmHg 73%
    18:00 +7°C° 0.2 mm 1 m/S 687 mmHg 75%
    19:00 +6°C° 0.1 mm 1 m/S 687 mmHg 78%
    20:00 +5°C° 0.1 mm 1 m/S 688 mmHg 80%
    21:00 +3°C° 0.1 mm 0 m/S 688 mmHg 82%
    22:00 +4°C° 0 mm 1 m/S 688 mmHg 81%
    23:00 +4°C° 0 mm 1 m/S 688 mmHg 81%

    24 April, Mittwoch

    Zeit Temperatur Niederschläge Wind Luftdruck Luftfeuchtigkeit
    00:00 +4°C° 0 mm 1 m/S 688 mmHg 80%
    01:00 +4°C° 0 mm 1 m/S 688 mmHg 78%
    02:00 +4°C° 0 mm 1 m/S 688 mmHg 77%
    03:00 +3°C° 0 mm 1 m/S 688 mmHg 75%
    04:00 +4°C° 0 mm 1 m/S 688 mmHg 74%
    05:00 +4°C° 0 mm 1 m/S 688 mmHg 73%
    06:00 +5°C° 0 mm 1 m/S 689 mmHg 72%
    07:00 +6°C° 0.1 mm 1 m/S 689 mmHg 69%
    08:00 +8°C° 0.1 mm 1 m/S 689 mmHg 66%
    09:00 +8°C° 0.1 mm 2 m/S 689 mmHg 64%
    10:00 +9°C° 0.2 mm 2 m/S 689 mmHg 63%
    11:00 +9°C° 0.2 mm 2 m/S 689 mmHg 62%
    12:00 +10°C° 0.2 mm 3 m/S 688 mmHg 62%
    13:00 +9°C° 0.4 mm 3 m/S 688 mmHg 64%
    14:00 +9°C° 0.4 mm 3 m/S 688 mmHg 66%
    15:00 +9°C° 0.4 mm 3 m/S 687 mmHg 68%
    16:00 +8°C° 0.5 mm 2 m/S 687 mmHg 72%
    17:00 +7°C° 0.5 mm 2 m/S 687 mmHg 76%
    18:00 +6°C° 0.5 mm 2 m/S 687 mmHg 80%
    19:00 +7°C° 0.3 mm 1 m/S 687 mmHg 84%
    20:00 +6°C° 0.3 mm 1 m/S 688 mmHg 87%
    21:00 +5°C° 0.3 mm 1 m/S 688 mmHg 90%
    22:00 +5°C° 0.3 mm 1 m/S 688 mmHg 90%
    23:00 +5°C° 0.3 mm 1 m/S 688 mmHg 90%

    25 April, Donnerstag

    Zeit Temperatur Niederschläge Wind Luftdruck Luftfeuchtigkeit
    00:00 +5°C° 0.3 mm 1 m/S 688 mmHg 90%
    01:00 +5°C° 0.2 mm 1 m/S 688 mmHg 89%
    02:00 +4°C° 0.2 mm 1 m/S 688 mmHg 89%
    03:00 +4°C° 0.2 mm 1 m/S 688 mmHg 88%
    04:00 +4°C° 0.2 mm 1 m/S 688 mmHg 86%
    05:00 +5°C° 0.2 mm 1 m/S 689 mmHg 84%
    06:00 +5°C° 0.2 mm 1 m/S 689 mmHg 83%
    07:00 +6°C° 0.1 mm 1 m/S 689 mmHg 77%
    08:00 +7°C° 0.1 mm 1 m/S 689 mmHg 72%
    09:00 +9°C° 0.1 mm 1 m/S 689 mmHg 67%
    10:00 +9°C° 0.1 mm 2 m/S 689 mmHg 64%
    11:00 +9°C° 0.1 mm 2 m/S 689 mmHg 62%
    12:00 +10°C° 0.1 mm 2 m/S 689 mmHg 59%
    13:00 +10°C° 0.1 mm 2 m/S 688 mmHg 58%
    14:00 +12°C° 0.1 mm 2 m/S 688 mmHg 57%
    15:00 +11°C° 0.1 mm 3 m/S 688 mmHg 56%
    16:00 +10°C° 0.1 mm 2 m/S 688 mmHg 59%
    17:00 +9°C° 0.1 mm 2 m/S 688 mmHg 61%
    18:00 +8°C° 0.1 mm 2 m/S 688 mmHg 64%
    19:00 +8°C° 0 mm 1 m/S 688 mmHg 67%
    20:00 +7°C° 0 mm 1 m/S 688 mmHg 71%
    21:00 +5°C° 0 mm 1 m/S 688 mmHg 75%
    22:00 +5°C° 0 mm 1 m/S 688 mmHg 75%
    23:00 +5°C° 0 mm 1 m/S 688 mmHg 75%
    Mehr zeigen